Location: Newark
(7.0858°N, 171.3717°E)
Time: 13:51:15
(UTC+00:00)

Courier 1B Rocket - Pass Details

Date: 05 December 2020
Orbit: 920 x 1202 km, 28.2° (Epoch: 20 January)

Event Time Altitude Azimuth Distance (km) Brightness Sun altitude
Rises 15:43:31 0° 289° (WNW) 3,925 - -40.0°
Reaches altitude 10° 15:47:21 10° 308° (NW) 3,017 - -39.1°
Maximum altitude 15:52:07 18° 348° (NNW) 2,531 - -38.0°
Exits shadow 15:56:40 11° 26° (NNE) 3,033 7.6 -37.0°
Drops below altitude 10° 15:57:01 10° 28° (NNE) 3,105 7.6 -36.9°
Sets 16:01:04 0° 46° (NE) 4,086 8.5 -36.0°
